Regional Weather Roundup
Issued by NWS

Home | Current Version | Previous Version | Graphics & Text | Print | Product List | Glossary On
Versions: 1 2 3 4 5 6 7 8 9 10 11 12 13 14 15 16 17 18 19 20 21 22 23 24 25 26 27 28 29 30 31 32 33 34 35 36 37 38 39 40 41 42 43 44 45 46 47 48 49 50
000
ASUS43 KMKX 290721
RWRWI

WISCONSIN REGIONAL WEATHER ROUNDUP
NATIONAL WEATHER SERVICE MILWAUKEE/SULLIVAN WI
200 AM CDT SUN MAY 29 2016

NOTE: "FAIR" INDICATES FEW OR NO CLOUDS BELOW 12,000 FEET WITH NO
SIGNIFICANT WEATHER AND/OR OBSTRUCTIONS TO VISIBILITY.

WIZ001-002-006>008-014>016-023>028-290800-
NORTHWEST WISCONSIN

CITY           SKY/WX    TMP DP  RH WIND       PRES   REMARKS
SUPERIOR ARPT  FOG       51  51 100 CALM      29.81S VSB 1/4
ASHLAND        CLOUDY    52  51  97 CALM      29.80S FOG
HAYWARD        FOG       60  58  92 CALM      29.80S VSB 3/4
SIREN          RAIN      60  59  97 CALM      29.82S
CUMBERLAND     RAIN      59  59 100 W5        29.81F
RICE LAKE      MOCLDY    61  60  94 CALM      29.83S
CHETEK         CLOUDY    61  61 100 CALM      29.82S FOG
LADYSMITH      CLOUDY    62  61  96 S7        29.83S FOG
EAU CLAIRE     CLOUDY    59  58  96 SW3       29.82R
MENOMONIE      CLOUDY    62  62  99 S3        29.83R
NEW RICHMOND   CLOUDY    61  61 100 SW5       29.83S
OSCEOLA        CLOUDY    61  61 100 W3        29.85S
$$

WIZ003>005-009-010-017-018-290800-
NORTH CENTRAL WISCONSIN

CITY           SKY/WX    TMP DP  RH WIND       PRES   REMARKS
MANITOWISH WTR NOT AVBL
ARBOR VITAE    CLOUDY    60  58  95 SE5       29.81F
WOODRUFF       CLOUDY    60  58  95 SE5       29.81F
RHINELANDER    CLOUDY    64  61  90 S8        29.83S
EAGLE RIVER      N/A     62  62  98 SE3       29.82F
LAND O LAKES   MOCLDY    61  60  98 E5        29.83F
PHILLIPS       CLOUDY    60  60 100 S5        29.81S
TOMAHAWK       RAIN      62  60  93 CALM      29.83S
MEDFORD        PTCLDY    60  60 100 SW8       29.84R
MERRILL        CLOUDY    64  63  94 S8        29.84S
$$

WIZ029-030-035-036-043>047-290800-
CENTRAL WISCONSIN

CITY           SKY/WX    TMP DP  RH WIND       PRES   REMARKS
WAUSAU         CLOUDY    65  61  87 SW9       29.82F
MOSINEE        CLOUDY    61  61 100 S8        29.86S
MARSHFIELD     CLOUDY    62  59  90 S7        29.84S
STEVENS POINT  PTCLDY    62  61  96 S8        29.85F
WAUPACA        CLOUDY    65  65  97 S5        29.85F
WAUTOMA        MOCLDY    64  63  96 S6        29.87F
WISC RAPIDS    CLOUDY    64  61  90 S7        29.86F
CAMP DOUGLAS   CLOUDY    64  64 100 S12G18    29.84F
$$

WIZ011>013-019>022-031-037>040-048>050-290800-
NORTHEAST WISCONSIN

CITY           SKY/WX    TMP DP  RH WIND       PRES   REMARKS
ANTIGO         CLOUDY    62  61  98 S13       29.85F
SHAWANO        PTCLDY    65  62  89 S3        29.85F
OCONTO         CLOUDY    64  64 100 CALM      29.84F
STURGEON BAY   NOT AVBL
GREEN BAY      CLOUDY    65  61  87 S6        29.85F
MANITOWOC      CLOUDY    63  61  93 S6        29.87F
APPLETON       CLOUDY    63  63 100 S9        29.85F
CLINTONVILLE   MOCLDY    63  61  94 SW7       29.85F
OSHKOSH        CLOUDY    65  62  90 S7        29.86F
$$

WIZ032>034-041-042-053>061-290800-
SOUTHWEST WISCONSIN

CITY           SKY/WX    TMP DP  RH WIND       PRES   REMARKS
LA CROSSE      CLOUDY    64  61  90 S6        29.83S
SPARTA         PTCLDY    64  61  93 S6        29.85S
VIROQUA        CLOUDY    63  61  94 S8        29.86F
BOSCOBEL       CLOUDY    64  62  93 CALM      29.87F
PRAIRIE DU CHI CLOUDY    64  58  79 CALM      29.86F
PLATTEVILLE    CLOUDY    64  61  91 S8        29.91F
$$

WIZ056-057-062-063-064-067-068-290800-
SOUTH CENTRAL WISCONSIN

CITY           SKY/WX    TMP DP  RH WIND       PRES   REMARKS
REEDSBURG      MOCLDY    64  62  94 S10       29.87F
BARABOO/DELLS  MOCLDY    64  60  85 S6        29.87F
LONE ROCK      PTCLDY    66  60  81 SW10      29.88F
MINERAL POINT  PTCLDY    64  61  88 S8        29.90F
MADISON        MOCLDY    67  62  84 S5        29.89F
MIDDLETON      MOCLDY    66  62  86 S7        29.90S
WATERTOWN      CLOUDY    65  65 100 S7        29.89S
MONROE         PTCLDY    63  59  88 S9        29.92F
JANESVILLE     CLOUDY    66  64  94 SW7       29.92S
$$

WIZ051-052-058>065-066-070>072-290800-
SOUTHEAST WISCONSIN

CITY           SKY/WX    TMP DP  RH WIND       PRES   REMARKS
MILWAUKEE      CLOUDY    65  63  93 S9        29.91F
WAUKESHA       CLOUDY    63  61  94 S8        29.92F
MILWAUKEE/TIMM CLOUDY    63  61  94 S7        29.91S
RACINE         PTCLDY    65  61  87 SW9       29.93F
BURLINGTON     CLOUDY    63  62  97 SW5       29.92F
KENOSHA        CLOUDY    65  62  90 SW7       29.92F
FOND DU LAC    CLOUDY    66  63  90 S9        29.87F
SHEBOYGAN      CLOUDY    62  60  93 SW7       29.88F FOG
WEST BEND      CLOUDY    63  61  94 S5        29.89F
JUNEAU         CLOUDY    64  63  95 S8        29.90F
$$

LSZ147-162-290800-
LAKE SUPERIOR

STATION/POSITION TIME  TEMP    WIND        PRES    WAVE
                       AIR SEA DIR/SP/G            HT/PER
                 (UTC) (F)     (DEG/KT/KT) (MB)    (FT/S)
W MID LAKE BUOY  0650   39 38   50/  6/  8 1009.3S   1/ 4
DEVILS ISLAND    0700   45     310/  4/  4 1009.5F
SAXON HARBOR     0600   49     200/  2/  2 1008.5
$$

LMZ867-665-643>646-290800-
LAKE MICHIGAN

STATION/POSITION TIME  TEMP    WIND        PRES    WAVE
                       AIR SEA DIR/SP/G            HT/PER
                 (UTC) (F)     (DEG/KT/KT) (MB)    (FT/S)
CHAMBERS ISLAND  0600   63     170/  6/ 12 1011.2
N MID LAKE BUOY  0650   50 46  200/ 10/ 12 1011.3R   3/ 5
NORTHPORT PIER   0600   63     170/  6/ 13 1011.2R
SISTER BAY       0620   66     190/ 16/ 20   N/A
ALGOMA LAKESHORE 0617          220/ 12/ 13   N/A
KEWAUNEE LAKESHO 0600   59     180/ 10/ 12 1011.4F
SHEBOYGAN LAKESH 0700   61     190/  9/  9 1012.0F
PORT WASHINGTON  0640   58     190/  5/  8 1012.9F
S MID LAKE BUOY  0650   54 50  170/  8/ 10 1013.7S   1/ 4
KENOSHA   LAKESH 0700   61     200/  7/ 10 1013.2F
$$

TC  - TEMPERATURE IN CELSIUS
VSB - VISIBILITY IN STATUTE MILES
WCI - WIND CHILL INDEX
HX  - HEAT INDEX





USA.gov is the U.S. government's official web portal to all federal, state and local government web resources and services.